DW5247 Lemo FI current weather conditions

sailwx.info

Wind from 315

Air temperature -10.0° C
Dewpoint -11.5° C

Last reported at 2018-Jan-24 03:07 UTC.
Time now 2018-Jan-24 03:57 UTC

Location: N 62°41' E 029°49'.
View on Google Maps.

See reports from other nearby stations

  
Tides and Currents Weather Stations Pressure Air Temp Water Temp Dewpoint Dewpoint Depression Visibility Wind Speed Wind Dir Waves Ship Positions
date/time (UTC)wind fromknots sea level pressurealtimeterstation pressurevisibilityair tempwater tempwave heightnotes
2018-Jan-24 03:07 315 -10.0
2018-Jan-24 03:02 315 -10.0
2018-Jan-24 02:57 248 0 gusting 2 -10.0
2018-Jan-24 02:52 270 -10.0
2018-Jan-24 02:47 270 0 gusting 2 -10.6
2018-Jan-24 02:42 248 0 gusting 1 -10.6
2018-Jan-24 02:37 315 -10.6
2018-Jan-24 02:32 270 -10.6
2018-Jan-24 02:27 293 -10.6
2018-Jan-24 02:22 293 -10.6
2018-Jan-24 02:17 315 -10.6
2018-Jan-24 02:12 270 -10.6
2018-Jan-24 02:07 248 -10.6
2018-Jan-24 02:02 293 -11.1
2018-Jan-24 01:57 315 -11.1
2018-Jan-24 01:52 293 -11.1
2018-Jan-24 01:47 315 -11.1
2018-Jan-24 01:42 293 -11.1
2018-Jan-24 01:37 315 -11.1
2018-Jan-24 01:32 248 -11.1
2018-Jan-24 01:27 293 -11.1
2018-Jan-24 01:22 248 -11.1
2018-Jan-24 01:17 225 0 -11.1
2018-Jan-24 01:12 293 -11.7
2018-Jan-24 01:07 293 -11.7
2018-Jan-24 01:02 293 -11.7
2018-Jan-24 00:57 315 -11.7
2018-Jan-24 00:52 315 -11.7
2018-Jan-24 00:47 248 0 gusting 1 -11.7
2018-Jan-24 00:42 270 -11.7
2018-Jan-24 00:37 225 -11.7
2018-Jan-24 00:32 293 -11.7
2018-Jan-24 00:27 293 -11.7
2018-Jan-24 00:22 113 -11.7
2018-Jan-24 00:17 315 -11.7
2018-Jan-24 00:12 338 -12.2
2018-Jan-24 00:07 338 -12.2
2018-Jan-24 00:02 315 0 gusting 2 -12.2
2018-Jan-23 23:57 315 -12.2
2018-Jan-23 23:52 338 -12.2
2018-Jan-23 23:47 338 -12.2
2018-Jan-23 23:42 315 -12.2
2018-Jan-23 23:37 338 -12.2
2018-Jan-23 23:32 293 -12.2
2018-Jan-23 23:27 225 -12.2
2018-Jan-23 23:22 315 -12.2
2018-Jan-23 23:17 315 -12.2
2018-Jan-23 23:12 315 -12.2
2018-Jan-23 23:07 293 -12.2
2018-Jan-23 23:02 315 0 gusting 1 -12.2
2018-Jan-23 22:57 338 -12.2
2018-Jan-23 22:52 023 -12.8
2018-Jan-23 22:47 270 0 gusting 2 -12.8
2018-Jan-23 22:42 270 0 gusting 2 -12.8
2018-Jan-23 22:37 315 0 gusting 2 -13.3
2018-Jan-23 22:32 023 0 gusting 1 -13.3
2018-Jan-23 22:27 315 0 gusting 1 -13.3
2018-Jan-23 22:22 293 0 gusting 1 -13.3
2018-Jan-23 22:17 023 -13.9
2018-Jan-23 22:11 315 -13.9
2018-Jan-23 22:06 023 -13.9
2018-Jan-23 21:57 315 -14.4
2018-Jan-23 21:52 315 -14.4
2018-Jan-23 21:47 270 -14.4
2018-Jan-23 21:42 270 -15.0
2018-Jan-23 21:37 315 -15.0
2018-Jan-23 21:32 270 -15.0
2018-Jan-23 21:27 315 -15.0
2018-Jan-23 21:22 248 -15.0
2018-Jan-23 21:17 270 -15.6
2018-Jan-23 21:12 338 -15.6
2018-Jan-23 21:07 315 -15.6
2018-Jan-23 21:02 023 -15.6
2018-Jan-23 20:57 338 -15.6
2018-Jan-23 20:52 315 -15.6
2018-Jan-23 20:47 023 -15.6
2018-Jan-23 20:42 315 -15.6
2018-Jan-23 20:37 293 -15.6
2018-Jan-23 20:32 315 -15.6
2018-Jan-23 20:27 248 -16.1
2018-Jan-23 20:22 248 -16.1
2018-Jan-23 20:17 270 -16.1
2018-Jan-23 20:12 293 -16.1
2018-Jan-23 20:07 338 -16.1
2018-Jan-23 20:02 293 -16.1
2018-Jan-23 19:57 338 -16.1
2018-Jan-23 19:52 338 -16.1
2018-Jan-23 19:47 315 -16.1
2018-Jan-23 19:42 270 -16.1
2018-Jan-23 19:37 270 -16.1
2018-Jan-23 19:32 315 -16.1
2018-Jan-23 19:27 225 -16.1
2018-Jan-23 19:22 293 -16.1
2018-Jan-23 19:17 248 -16.1
2018-Jan-23 19:12 315 -16.7
2018-Jan-23 19:07 158 -16.7
2018-Jan-23 19:02 293 -16.1
2018-Jan-23 18:57 023 -16.7
2018-Jan-23 18:52 338 -16.7
2018-Jan-23 18:47 338 -16.7
2018-Jan-23 18:42 315 -16.7
2018-Jan-23 18:37 315 -16.7
2018-Jan-23 18:32 315 -16.7
2018-Jan-23 18:27 338 0 gusting 1 -16.7
2018-Jan-23 18:22 248 0 gusting 1 -16.7
2018-Jan-23 18:17 315 -16.7
2018-Jan-23 18:12 338 -17.2
2018-Jan-23 18:07 023 -17.2
2018-Jan-23 18:02 338 0 gusting 1 -17.2
2018-Jan-23 17:57 315 0 gusting 1 -17.2
2018-Jan-23 17:52 023 -17.2
2018-Jan-23 17:47 -17.2
2018-Jan-23 17:42 293 -17.2
2018-Jan-23 17:37 315 -17.2
2018-Jan-23 17:32 338 0 gusting 2 -17.8
2018-Jan-23 17:27 338 0 gusting 1 -17.8
2018-Jan-23 17:22 -17.8
2018-Jan-23 17:17 338 -17.8
2018-Jan-23 17:12 270 -18.3
2018-Jan-23 17:07 315 -18.3
2018-Jan-23 17:02 293 -18.3
2018-Jan-23 16:57 315 -18.3
2018-Jan-23 16:52 338 -18.3
2018-Jan-23 16:47 270 -18.3
2018-Jan-23 16:42 203 -18.3
2018-Jan-23 16:37 270 -18.3
2018-Jan-23 16:32 270 -18.3
2018-Jan-23 16:27 023 -18.3
2018-Jan-23 16:22 -18.3
2018-Jan-23 16:17 338 -17.8
2018-Jan-23 16:07 -17.8
2018-Jan-23 16:02 338 -17.8
2018-Jan-23 15:57 -17.8
2018-Jan-23 15:52 023 -17.2
2018-Jan-23 15:47 068 -17.2
2018-Jan-23 15:42 045 -17.2
2018-Jan-23 15:37 023 0 gusting 4 -17.2
2018-Jan-23 15:32 023 0 gusting 4 -17.2
2018-Jan-23 15:27 045 1 gusting 3 -17.2
2018-Jan-23 15:22 023 1 gusting 3 -16.7
2018-Jan-23 15:17 068 1 gusting 3 -16.7
2018-Jan-23 15:12 023 1 gusting 3 -16.7
2018-Jan-23 15:07 045 2 gusting 5 -16.7
2018-Jan-23 15:02 023 2 gusting 5 -16.7
2018-Jan-23 14:57 023 1 gusting 5 -16.7
2018-Jan-23 14:52 -16.7
2018-Jan-23 14:47 068 0 gusting 3 -16.7
2018-Jan-23 14:42 113 0 gusting 3 -16.7
2018-Jan-23 14:37 045 0 gusting 3 -16.7
2018-Jan-23 14:32 045 0 gusting 4 -16.7
2018-Jan-23 14:27 068 0 gusting 4 -16.7
2018-Jan-23 14:22 023 0 gusting 4 -16.7
2018-Jan-23 14:17 023 0 gusting 5 -16.7
2018-Jan-23 14:12 338 -16.7
2018-Jan-23 14:07 045 0 gusting 5 -16.1
2018-Jan-23 14:02 068 0 gusting 3 -16.1
2018-Jan-23 13:57 023 -16.1
2018-Jan-23 13:52 023 0 gusting 3 -16.1
2018-Jan-23 13:47 023 0 gusting 2 -15.6
2018-Jan-23 13:42 068 0 gusting 2 -15.6
2018-Jan-23 13:37 045 1 gusting 3 -15.6
2018-Jan-23 13:32 023 1 gusting 3 -15.6
2018-Jan-23 13:27 023 1 gusting 3 -15.6
2018-Jan-23 13:22 023 2 gusting 3 -15.6
2018-Jan-23 13:17 023 2 gusting 3 -15.0
2018-Jan-23 13:12 023 1 gusting 2 -15.0
2018-Jan-23 13:07 045 0 gusting 2 -15.0
2018-Jan-23 13:02 338 0 gusting 3 -15.0
2018-Jan-23 12:57 023 1 gusting 3 -15.0
2018-Jan-23 12:52 023 1 gusting 3 -15.0
2018-Jan-23 12:47 023 2 gusting 3 -15.0
2018-Jan-23 12:42 045 2 gusting 3 -15.0
2018-Jan-23 12:37 068 2 gusting 3 -15.0
2018-Jan-23 12:32 338 2 gusting 3 -15.0
2018-Jan-23 12:27 -15.0
2018-Jan-23 12:22 068 1 gusting 4 -15.0
2018-Jan-23 12:17 090 2 gusting 4 -15.0
2018-Jan-23 12:12 023 2 gusting 4 -15.0
2018-Jan-23 12:07 023 1 gusting 4 -15.0
2018-Jan-23 12:02 023 2 gusting 4 -15.0
2018-Jan-23 11:57 338 1 gusting 4 -15.0
2018-Jan-23 11:52 023 1 gusting 4 -15.0
2018-Jan-23 11:47 023 1 gusting 3 -15.0
2018-Jan-23 11:42 023 1 gusting 4 -15.0
2018-Jan-23 11:37 045 2 gusting 4 -15.0
2018-Jan-23 11:32 023 2 gusting 4 -15.0
2018-Jan-23 11:27 045 1 gusting 3 -15.0
2018-Jan-23 11:22 023 2 gusting 5 -15.0
2018-Jan-23 11:17 045 2 gusting 6 -15.0
2018-Jan-23 11:12 068 1 gusting 6 -15.0
2018-Jan-23 11:07 090 2 gusting 6 -15.0
2018-Jan-23 11:02 135 2 gusting 5 -15.0
2018-Jan-23 10:57 023 2 gusting 5 -15.0
2018-Jan-23 10:52 023 2 gusting 5 -15.0
2018-Jan-23 10:47 023 2 gusting 4 -15.0
2018-Jan-23 10:42 338 1 gusting 4 -15.0
2018-Jan-23 10:37 135 1 gusting 5 -15.0
2018-Jan-23 10:32 090 2 gusting 5 -15.0
2018-Jan-23 10:27 023 1 gusting 5 -15.0
2018-Jan-23 10:22 045 1 gusting 3 -15.0
2018-Jan-23 10:17 045 1 gusting 3 -15.6
2018-Jan-23 10:12 338 1 gusting 3 -15.6
2018-Jan-23 10:07 045 1 gusting 3 -15.6
2018-Jan-23 10:02 045 1 gusting 3 -15.6
2018-Jan-23 09:57 045 1 gusting 5 -15.6
2018-Jan-23 09:52 045 1 gusting 6 -15.6
2018-Jan-23 09:47 338 2 gusting 6 -15.6
2018-Jan-23 09:42 068 2 gusting 6 -15.6
2018-Jan-23 09:37 023 1 gusting 4 -15.6
2018-Jan-23 09:32 023 1 gusting 4 -15.6
2018-Jan-23 09:27 045 1 gusting 4 -15.6
2018-Jan-23 09:22 090 1 gusting 3 -15.6
2018-Jan-23 09:17 045 1 gusting 6 -15.6
2018-Jan-23 09:12 023 2 gusting 6 -15.6
2018-Jan-23 09:07 090 2 gusting 6 -15.6
2018-Jan-23 09:02 023 2 gusting 3 -15.6
2018-Jan-23 08:57 068 2 gusting 6 -15.6
2018-Jan-23 08:52 -15.6
2018-Jan-23 08:47 023 2 gusting 5 -15.6
2018-Jan-23 08:42 023 2 gusting 5 -15.6
2018-Jan-23 08:37 045 1 gusting 5 -15.6
2018-Jan-23 08:32 045 1 gusting 5 -15.6
2018-Jan-23 08:27 068 2 gusting 5 -15.6
2018-Jan-23 08:22 113 2 gusting 3 -15.6
2018-Jan-23 08:17 045 1 gusting 2 -15.6
2018-Jan-23 08:12 180 0 gusting 3 -15.6
2018-Jan-23 08:07 023 0 gusting 3 -16.1
2018-Jan-23 08:02 090 1 gusting 3 -16.1
2018-Jan-23 07:57 068 1 gusting 2 -16.1
2018-Jan-23 07:52 068 0 gusting 1 -16.1
2018-Jan-23 07:47 090 0 gusting 2 -16.1
2018-Jan-23 07:42 068 0 gusting 2 -16.1
2018-Jan-23 07:37 068 0 gusting 3 -16.1
2018-Jan-23 07:32 045 0 gusting 3 -16.1
2018-Jan-23 07:27 045 0 gusting 5 -16.1
2018-Jan-23 07:22 045 1 gusting 5 -16.1
2018-Jan-23 07:17 023 1 gusting 6 -16.1
2018-Jan-23 07:12 090 1 gusting 6 -16.1
2018-Jan-23 07:07 225 0 gusting 6 -16.1
2018-Jan-23 07:02 045 0 gusting 2 -16.1
2018-Jan-23 06:57 023 0 gusting 2 -16.1
2018-Jan-23 06:52 338 0 gusting 2 -16.1
2018-Jan-23 06:47 068 0 gusting 2 -16.1
2018-Jan-23 06:42 -16.1
2018-Jan-23 06:37 315 0 gusting 2 -16.1
2018-Jan-23 06:32 -16.1
2018-Jan-23 06:27 338 1 gusting 3 -16.1
2018-Jan-23 06:22 045 1 gusting 3 -16.1
2018-Jan-23 06:17 -16.1
2018-Jan-23 06:12 045 1 gusting 2 -16.1
2018-Jan-23 06:07 023 1 gusting 2 -15.6
2018-Jan-23 06:02 023 0 gusting 2 -15.6
2018-Jan-23 05:57 068 0 gusting 2 -15.6
2018-Jan-23 05:52 315 0 gusting 3 -15.6
2018-Jan-23 05:47 045 0 gusting 3 -15.6
2018-Jan-23 05:42 -15.6
2018-Jan-23 05:37 045 1 gusting 3 -15.6
2018-Jan-23 05:32 045 1 gusting 3 -15.6
2018-Jan-23 05:27 023 1 gusting 3 -15.6
2018-Jan-23 05:22 023 1 gusting 3 -15.6
2018-Jan-23 05:17 068 1 gusting 3 -15.6
2018-Jan-23 05:12 023 1 gusting 2 -15.6
2018-Jan-23 05:07 -15.6
2018-Jan-23 05:02 338 -15.6
2018-Jan-23 04:57 -15.6
2018-Jan-23 04:52 023 0 gusting 2 -15.6
2018-Jan-23 04:47 338 0 gusting 2 -15.6
2018-Jan-23 04:42 068 0 gusting 2 -15.6
2018-Jan-23 04:37 023 0 gusting 3 -15.6
2018-Jan-23 04:32 338 0 gusting 4 -15.6
2018-Jan-23 04:27 338 1 gusting 4 -15.6
2018-Jan-23 04:22 023 1 gusting 4 -15.6
2018-Jan-23 04:17 023 0 gusting 2 -15.6
2018-Jan-23 04:12 113 0 gusting 2 -15.6
2018-Jan-23 04:07 068 0 gusting 2 -15.6
2018-Jan-23 04:02 068 0 gusting 2 -15.6
2018-Jan-23 03:57 068 0 gusting 2 -15.6
2018-Jan-23 03:52 068 0 gusting 6 -15.6
2018-Jan-23 03:47 068 1 gusting 6 -15.6
2018-Jan-23 03:42 045 1 gusting 6 -15.6
2018-Jan-23 03:37 338 1 gusting 3 -15.6
2018-Jan-23 03:32 -15.6
2018-Jan-23 03:27 023 1 gusting 3 -15.6
2018-Jan-23 03:22 068 1 gusting 3 -15.6
2018-Jan-23 03:17 023 1 gusting 2 -15.6
2018-Jan-23 03:12 045 1 gusting 2 -15.6
2018-Jan-23 03:07 023 1 gusting 2 -15.6
2018-Jan-23 03:02 045 1 gusting 3 -15.6
2018-Jan-23 02:57 068 1 gusting 3 -15.0
2018-Jan-23 02:52 113 1 gusting 3 -15.0
2018-Jan-23 02:47 023 1 gusting 2 -15.0
2018-Jan-23 02:42 045 1 gusting 2 -15.0
2018-Jan-23 02:37 068 1 gusting 4 -15.0
2018-Jan-23 02:32 045 0 gusting 4 -15.0
2018-Jan-23 02:27 045 0 gusting 5 -15.0
2018-Jan-23 02:22 338 1 gusting 5 -15.0
2018-Jan-23 02:17 068 0 gusting 5 -15.0
2018-Jan-23 02:12 068 -15.0
2018-Jan-23 02:07 023 -15.6
2018-Jan-23 02:02 -15.0
2018-Jan-23 01:57 023 0 gusting 3 -15.6
2018-Jan-23 01:52 045 0 gusting 3 -15.0
2018-Jan-23 01:47 045 1 gusting 4 -15.6
2018-Jan-23 01:42 -15.6
2018-Jan-23 01:37 023 1 gusting 4 -15.6
2018-Jan-23 01:32 023 1 gusting 3 -15.6
2018-Jan-23 01:27 045 1 gusting 3 -15.6
2018-Jan-23 01:22 045 0 gusting 3 -15.6
2018-Jan-23 01:17 068 0 gusting 2 -15.6
2018-Jan-23 01:12 338 -15.6
2018-Jan-23 01:07 023 0 gusting 2 -15.6
2018-Jan-23 01:02 023 0 gusting 2 -15.6
2018-Jan-23 00:57 023 -15.6
2018-Jan-23 00:52 068 -15.6
2018-Jan-23 00:47 023 -15.6
2018-Jan-23 00:42 023 -15.6
2018-Jan-23 00:37 068 0 gusting 3 -15.6
2018-Jan-23 00:32 068 0 gusting 3 -15.6
2018-Jan-23 00:27 045 0 gusting 2 -15.6
2018-Jan-23 00:22 045 0 gusting 4 -15.6
2018-Jan-23 00:17 023 0 gusting 4 -15.6
2018-Jan-23 00:12 045 0 gusting 3 -15.6
2018-Jan-23 00:07 023 0 gusting 3 -15.6
2018-Jan-23 00:02 068 0 gusting 2 -15.6
2018-Jan-22 23:57 023 1 gusting 3 -15.6
2018-Jan-22 23:52 338 0 gusting 3 -15.6
2018-Jan-22 23:47 090 0 gusting 3 -15.6
2018-Jan-22 23:42 068 0 gusting 3 -15.6
2018-Jan-22 23:37 113 1 gusting 3 -15.6
2018-Jan-22 23:32 135 1 gusting 3 -15.6
2018-Jan-22 23:27 068 1 gusting 3 -15.6
2018-Jan-22 23:22 023 1 gusting 4 -15.6
2018-Jan-22 23:17 068 1 gusting 4 -15.6
2018-Jan-22 23:12 068 1 gusting 4 -15.6
2018-Jan-22 23:07 045 1 gusting 3 -15.6
2018-Jan-22 23:02 225 0 gusting 2 -15.6
2018-Jan-22 22:57 023 0 gusting 3 -15.6
2018-Jan-22 22:52 068 0 gusting 3 -15.6
2018-Jan-22 22:47 068 0 gusting 3 -16.1
2018-Jan-22 22:42 045 0 gusting 3 -16.1
2018-Jan-22 22:37 068 0 gusting 3 -16.1
2018-Jan-22 22:32 135 1 gusting 3 -16.1
2018-Jan-22 22:27 068 0 gusting 2 -16.1
2018-Jan-22 22:22 023 0 gusting 1 -16.1
2018-Jan-22 22:17 023 0 gusting 1 -16.1
2018-Jan-22 22:12 045 -16.1
2018-Jan-22 22:07 023 -16.1
2018-Jan-22 21:57 068 -16.1
2018-Jan-22 21:52 045 0 gusting 1 -16.1
2018-Jan-22 21:47 023 -16.1
2018-Jan-22 21:42 045 -16.1
2018-Jan-22 21:37 090 0 gusting 1 -16.1
2018-Jan-22 21:32 068 0 -16.1
2018-Jan-22 21:27 068 -16.1
2018-Jan-22 21:22 338 -16.1
2018-Jan-22 21:17 045 -16.1
2018-Jan-22 21:12 090 -16.1
2018-Jan-22 21:07 068 -16.1
2018-Jan-22 21:02 068 -16.1
2018-Jan-22 20:57 -16.1
2018-Jan-22 20:52 045 -16.1
2018-Jan-22 20:47 068 -16.1
2018-Jan-22 20:42 113 -16.1
2018-Jan-22 20:37 068 -16.1
2018-Jan-22 20:32 113 -16.1
2018-Jan-22 20:27 023 -16.7
2018-Jan-22 20:22 045 -16.7
2018-Jan-22 20:17 068 -16.7
2018-Jan-22 20:12 090 -16.1
2018-Jan-22 20:07 023 -16.7
2018-Jan-22 20:02 068 -16.7
2018-Jan-22 19:57 068 -16.7
2018-Jan-22 19:52 045 -16.7
2018-Jan-22 19:47 113 -16.7
2018-Jan-22 19:42 338 -16.7
2018-Jan-22 19:37 068 -16.7
2018-Jan-22 19:32 023 -16.7
2018-Jan-22 19:27 068 -16.7
2018-Jan-22 19:22 045 -16.7
2018-Jan-22 19:17 023 -16.7
2018-Jan-22 19:12 090 0 gusting 2 -16.7
2018-Jan-22 19:07 068 -16.7
2018-Jan-22 19:02 045 -16.7
2018-Jan-22 18:57 068 0 gusting 2 -16.7
2018-Jan-22 18:52 068 0 gusting 2 -16.7
2018-Jan-22 18:47 068 0 gusting 1 -16.7
2018-Jan-22 18:42 068 0 gusting 1 -16.7
2018-Jan-22 18:37 090 -16.7
2018-Jan-22 18:32 068 -16.7
2018-Jan-22 18:27 068 -16.7
2018-Jan-22 18:22 113 -16.7
2018-Jan-22 18:17 068 -16.7
2018-Jan-22 18:12 045 -16.7
2018-Jan-22 18:07 045 -16.7
2018-Jan-22 18:02 023 -16.7
2018-Jan-22 17:57 068 -16.7
2018-Jan-22 17:52 068 -16.7
2018-Jan-22 17:47 338 -16.7
2018-Jan-22 17:42 315 -16.7
2018-Jan-22 17:37 045 -16.7
2018-Jan-22 17:32 113 -16.7
2018-Jan-22 17:27 023 -16.7
2018-Jan-22 17:22 045 -16.7
2018-Jan-22 17:17 180 -16.7
2018-Jan-22 17:12 090 -16.7
2018-Jan-22 17:07 045 -16.7
2018-Jan-22 17:02 023 -17.2
2018-Jan-22 16:57 135 -17.2
2018-Jan-22 16:52 113 -17.2
2018-Jan-22 16:47 293 -17.2
2018-Jan-22 16:42 090 -17.2
2018-Jan-22 16:37 023 -17.2
2018-Jan-22 16:32 023 -17.2
2018-Jan-22 16:27 315 -17.2
2018-Jan-22 16:22 045 -17.2
2018-Jan-22 16:17 -17.2
2018-Jan-22 16:12 090 -17.2
2018-Jan-22 16:07 023 -17.2
2018-Jan-22 16:02 068 -17.2
2018-Jan-22 15:57 068 -17.2
2018-Jan-22 15:52 090 -17.2
2018-Jan-22 15:47 068 -17.8
2018-Jan-22 15:42 -17.8
2018-Jan-22 15:37 023 -17.8
2018-Jan-22 15:32 090 0 gusting 2 -17.8
2018-Jan-22 15:27 090 0 gusting 1 -17.8
2018-Jan-22 15:22 068 0 gusting 2 -17.8
2018-Jan-22 15:17 068 0 gusting 2 -18.3
2018-Jan-22 15:12 068 0 gusting 2 -18.3
2018-Jan-22 15:07 135 1 gusting 2 -18.3
2018-Jan-22 15:02 158 1 gusting 2 -18.3
2018-Jan-22 14:57 113 1 gusting 2 -18.9
2018-Jan-22 14:52 113 1 gusting 2 -18.9
2018-Jan-22 14:47 113 0 gusting 2 -19.4
2018-Jan-22 14:42 113 0 gusting 2 -19.4
2018-Jan-22 14:37 090 -20.0
2018-Jan-22 14:32 068 -20.0
2018-Jan-22 14:27 135 -20.0
2018-Jan-22 14:22 023 -20.0
2018-Jan-22 14:17 023 -20.6
2018-Jan-22 14:12 315 -20.6
2018-Jan-22 14:07 338 -20.6
2018-Jan-22 14:02 338 -20.6
2018-Jan-22 13:57 338 -20.6
2018-Jan-22 13:52 -20.6
2018-Jan-22 13:47 023 -20.6
2018-Jan-22 13:42 315 -20.6
2018-Jan-22 13:37 338 -20.6
2018-Jan-22 13:32 -20.6
2018-Jan-22 13:27 338 -20.6
2018-Jan-22 13:22 338 -20.6
2018-Jan-22 13:17 113 -20.0
2018-Jan-22 13:12 068 -20.6
2018-Jan-22 13:07 023 -20.0
2018-Jan-22 13:02 090 -20.0
2018-Jan-22 12:57 113 -20.0
2018-Jan-22 12:52 045 -20.0
2018-Jan-22 12:47 023 -20.0
2018-Jan-22 12:42 090 -20.0
2018-Jan-22 12:37 090 0 gusting 1 -20.0
2018-Jan-22 12:32 113 0 gusting 2 -20.0
2018-Jan-22 12:27 090 0 gusting 2 -19.4
2018-Jan-22 12:22 068 0 gusting 2 -19.4
2018-Jan-22 12:17 113 0 gusting 2 -20.0
2018-Jan-22 12:12 113 0 gusting 1 -19.4
2018-Jan-22 12:07 045 0 gusting 1 -19.4
2018-Jan-22 12:02 045 0 gusting 3 -19.4
2018-Jan-22 11:57 090 0 gusting 3 -19.4
2018-Jan-22 11:52 113 0 gusting 3 -19.4
2018-Jan-22 11:47 090 0 gusting 2 -19.4
2018-Jan-22 11:42 090 0 gusting 2 -19.4
2018-Jan-22 11:37 068 0 gusting 2 -19.4
2018-Jan-22 11:32 090 1 gusting 3 -19.4
2018-Jan-22 11:27 135 1 gusting 3 -19.4
2018-Jan-22 11:22 113 1 gusting 3 -19.4
2018-Jan-22 11:17 113 1 gusting 3 -20.0
2018-Jan-22 11:12 113 0 gusting 3 -19.4
2018-Jan-22 11:07 113 1 gusting 3 -19.4
2018-Jan-22 11:02 113 1 gusting 3 -20.0
2018-Jan-22 10:57 135 0 gusting 3 -20.0
2018-Jan-22 10:52 090 0 gusting 2 -20.0
2018-Jan-22 10:47 090 0 gusting 2 -20.0
2018-Jan-22 10:42 090 0 gusting 2 -20.0
2018-Jan-22 10:37 090 1 gusting 2 -20.0
2018-Jan-22 10:32 113 1 gusting 3 -20.0
2018-Jan-22 10:27 068 1 gusting 3 -20.0
2018-Jan-22 10:22 068 1 gusting 3 -20.0
2018-Jan-22 10:17 113 1 gusting 2 -20.6
2018-Jan-22 10:12 135 1 gusting 1 -20.6
2018-Jan-22 10:07 090 0 gusting 3 -20.6
2018-Jan-22 10:02 090 0 gusting 3 -20.6
2018-Jan-22 09:57 248 1 gusting 3 -20.6
2018-Jan-22 09:52 090 1 gusting 3 -20.6
2018-Jan-22 09:47 113 1 gusting 2 -21.1
2018-Jan-22 09:42 113 0 gusting 2 -21.1
2018-Jan-22 09:37 113 0 gusting 1 -21.1
2018-Jan-22 09:32 068 0 gusting 1 -21.1
2018-Jan-22 09:27 045 0 gusting 1 -21.1
2018-Jan-22 09:22 113 -21.1
2018-Jan-22 09:17 068 -21.1
2018-Jan-22 09:12 045 -21.7
2018-Jan-22 09:07 045 -21.1
2018-Jan-22 09:02 -21.1
2018-Jan-22 08:57 248 -21.7
2018-Jan-22 08:52 135 -21.7
2018-Jan-22 08:47 090 -21.7
2018-Jan-22 08:42 090 -21.7
2018-Jan-22 08:37 158 -21.7
2018-Jan-22 08:32 135 -21.7
2018-Jan-22 08:27 135 -21.7
2018-Jan-22 08:22 135 -21.7
2018-Jan-22 08:17 135 -21.7
2018-Jan-22 08:12 045 -21.7
2018-Jan-22 08:07 225 -21.7
2018-Jan-22 08:02 113 0 gusting 1 -22.2
2018-Jan-22 07:57 090 0 gusting 2 -22.2
2018-Jan-22 07:52 090 0 gusting 2 -22.2
2018-Jan-22 07:47 113 -22.2
2018-Jan-22 07:42 090 -22.2
2018-Jan-22 07:37 090 -22.2
2018-Jan-22 07:32 113 -22.2
2018-Jan-22 07:27 113 0 -22.2
2018-Jan-22 07:22 113 -21.7
2018-Jan-22 07:17 068 -21.7
2018-Jan-22 07:12 068 -21.7
2018-Jan-22 07:07 023 -21.7
2018-Jan-22 07:02 090 -21.7
2018-Jan-22 06:57 090 -21.7
2018-Jan-22 06:52 068 -21.7
2018-Jan-22 06:47 068 -21.7
2018-Jan-22 06:42 068 -21.7
2018-Jan-22 06:37 045 -21.7
2018-Jan-22 06:32 068 -21.7
2018-Jan-22 06:27 068 -21.7
2018-Jan-22 06:22 045 -21.1
2018-Jan-22 06:17 090 -21.1
2018-Jan-22 06:12 090 -21.7
2018-Jan-22 06:07 135 -21.1
2018-Jan-22 06:02 090 -21.1
2018-Jan-22 05:57 068 -21.1
2018-Jan-22 05:52 068 -21.1
2018-Jan-22 05:47 248 -21.1
2018-Jan-22 05:42 180 -21.1
2018-Jan-22 05:37 270 -21.7
2018-Jan-22 05:32 113 0 gusting 1 -21.7
2018-Jan-22 05:27 135 0 gusting 2 -21.7
2018-Jan-22 05:22 113 0 gusting 2 -21.7
2018-Jan-22 05:17 135 0 gusting 2 -22.2
2018-Jan-22 05:12 113 0 gusting 2 -22.2
2018-Jan-22 05:07 135 0 gusting 2 -22.2
2018-Jan-22 05:02 113 0 gusting 2 -22.2
2018-Jan-22 04:57 113 0 gusting 2 -22.2
2018-Jan-22 04:52 113 0 gusting 1 -22.2
2018-Jan-22 04:47 068 -22.8
2018-Jan-22 04:42 068 -22.2
2018-Jan-22 04:37 113 -22.2
2018-Jan-22 04:32 068 -22.2
2018-Jan-22 04:27 090 -22.2
2018-Jan-22 04:22 090 -22.2
2018-Jan-22 04:17 113 -21.7
2018-Jan-22 04:12 135 -22.2
2018-Jan-22 04:07 135 -21.7
2018-Jan-22 04:02 135 -21.7
2018-Jan-22 03:57 158 -21.7
2018-Jan-22 03:52 135 -21.7
2018-Jan-22 03:47 113 -21.7
2018-Jan-22 03:42 113 -21.7
2018-Jan-22 03:37 135 -21.1
2018-Jan-22 03:32 158 -21.1
2018-Jan-22 03:22 113 -21.1
2018-Jan-22 03:17 113 -21.1
2018-Jan-22 03:12 113 -21.1
2018-Jan-22 03:07 113 -21.1
2018-Jan-22 03:02 068 -21.1